Dewpoint
69 70 71 72 72 73 72 73 72 72 72 72 72 73 73 72 72 73 73 74 75 76 76 74 74 74 74 74 73 74 73 73 73 72 72 72 72 71 71 71 71 70 69
70 71 71 70 71 71 72 72 72 72 71 72 72 72 72 72 72 72 73 72 74 76 76 75 75 74 74 74 74 74 73 73 73 73 73 73 73 73 72 71 71 71 71
71 70 70 70 70 72 72 71 72 71 71 72 72 72 72 73 72 72 73 73 73 75 76 76 75 75 75 75 74 74 74 73 73 73 73 73 73 73 73 72 71 71 71
70 71 70 69 70 72 72 71 71 71 70 71 70 72 72 72 73 72 73 72 72 72 75 76 76 75 75 75 74 74 74 74 73 73 73 73 73 73 73 73 73 72 72
71 70 70 70 69 70 70 71 70 70 69 70 70 70 71 71 71 72 72 72 72 73 74 75 76 76 75 73 74 74 74 74 73 72 73 73 73 73 73 73 73 73 72
71 70 70 70 70 70 70 70 68 68 69 69 71 70 70 71 71 70 71 72 72 72 73 72 74 75 75 75 75 74 73 74 73 73 73 73 73 73 72 72 72 72 72
69 69 69 70 69 69 69 69 69 68 69 70 68 67 68 69 70 71 71 70 71 72 73 73 73 73 74 74 74 73 73 74 73 74 74 73 73 73 73 72 72 72 72
68 69 69 69 69 69 69 69 69 67 68 69 65 66 62 64 68 70 71 70 70 72 72 72 72 72 72 72 72 73 74 75 73 74 73 72 73 72 72 72 72 71 72
68 68 68 69 69 69 69 69 69 67 66 69 68 65 61 60 65 68 69 69 70 70 71 72 72 72 71 72 72 72 73 73 74 74 74 73 72 72 72 72 72 71 71
68 68 68 69 69 69 68 68 69 67 67 66 67 69 67 66 63 62 67 69 70 69 70 70 71 71 72 72 72 72 72 72 73 74 74 74 73 72 72 72 72 71 71
68 69 68 68 69 69 69 69 68 67 66 66 64 65 66 67 67 64 62 64 68 69 69 70 70 71 72 71 71 72 72 72 72 73 72 73 73 72 72 72 72 72 72
67 69 68 68 68 69 68 69 69 67 67 66 66 66 66 65 64 64 62 62 63 66 68 69 69 69 70 70 71 72 72 71 71 71 71 71 73 73 72 72 72 71 70
66 67 67 67 68 69 68 69 69 68 67 67 66 66 67 67 67 66 64 63 63 66 67 69 69 69 69 69 70 72 72 71 70 70 70 70 71 72 72 72 72 72 71
65 67 67 68 68 69 68 69 68 67 67 66 66 67 67 68 68 67 63 62 60 62 63 64 68 68 69 69 69 72 70 71 70 69 69 69 70 70 70 70 69 70 70
66 66 67 68 68 68 68 67 67 68 68 67 67 67 67 67 66 68 67 63 63 58 60 63 64 69 70 69 69 70 69 69 70 69 67 67 68 68 68 70 70 70 68
67 66 66 67 67 67 68 67 67 68 67 67 67 66 65 64 65 67 67 66 65 62 59 63 66 67 68 71 71 69 69 68 67 67 66 65 66 66 66 66 65 65 65
67 67 67 67 66 66 66 67 67 67 66 66 66 66 66 66 66 67 66 66 64 64 61 64 65 67 67 67 68 67 66 63 63 64 64 63 63 63 63 62 62 62 62
66 66 67 66 66 66 66 66 66 66 66 66 66 65 65 65 64 65 66 65 65 64 63 62 64 65 65 66 65 62 64 63 60 62 62 61 61 60 60 59 58 57 56
65 66 66 66 66 65 64 63 63 63 61 61 61 62 63 64 63 64 64 64 65 65 64 64 63 64 63 64 61 59 58 59 62 60 60 60 60 58 56 55 55 53 51
65 65 66 65 64 64 63 63 63 62 61 60 60 59 59 60 61 62 61 60 62 63 63 63 62 62 62 63 62 59 55 54 54 59 58 58 58 57 56 55 55 53 51
64 65 64 63 63 64 64 63 62 61 59 58 58 57 58 59 58 59 58 57 59 61 63 62 61 62 62 62 61 60 57 57 53 54 55 54 54 54 56 56 54 53 52
64 64 62 59 58 58 62 62 62 60 59 57 55 54 55 55 58 57 56 56 58 58 61 61 61 58 57 58 59 58 55 53 50 52 51 52 54 54 54 51 54 53 51
61 59 58 54 50 50 56 60 61 60 59 57 57 58 58 57 55 53 50 49 50 54 55 57 54 55 53 54 56 55 53 52 50 50 49 47 49 49 52 52 54 52 50
57 55 53 50 47 48 52 59 56 51 49 50 50 49 49 50 52 47 41 41 42 43 43 46 49 47 47 48 49 51 51 53 52 49 48 46 46 43 46 48 54 52 51
51 50 50 49 46 46 50 52 49 46 45 45 48 49 48 51 53 50 44 45 46 47 50 51 50 50 50 51 49 44 44 41 42 47 47 45 44 43 42 41 50 53 52
50 48 48 48 48 45 47 49 47 43 43 43 43 43 48 47 48 50 49 47 47 48 49 48 47 48 46 48 49 46 46 44 42 42 45 44 44 43 38 44 47 47 49
Lifted_Index
-4 -4 -5 -4 -4 -4 -4 -4 -4 -4 -4 -4 -4 -4 -3 -3 -3 -3 -3 -4 -5 -5 -6 -5 -5 -4 -4 -4 -4 -4 -4 -4 -3 -3 -3 -3 -3 -2 -2 -2 -2 -2 -1
-4 -4 -4 -4 -4 -3 -3 -4 -3 -3 -4 -4 -4 -4 -3 -3 -3 -3 -3 -3 -4 -5 -6 -5 -5 -5 -5 -5 -4 -4 -4 -4 -3 -3 -3 -3 -3 -3 -2 -2 -2 -2 -2
-4 -4 -4 -3 -3 -3 -3 -3 -3 -3 -3 -4 -4 -4 -4 -3 -3 -3 -3 -3 -4 -5 -5 -6 -6 -5 -5 -5 -5 -5 -4 -4 -3 -3 -3 -3 -3 -3 -3 -2 -2 -2 -2
-4 -4 -4 -3 -3 -3 -3 -3 -3 -3 -3 -3 -4 -4 -4 -4 -4 -4 -3 -3 -3 -4 -5 -6 -6 -6 -5 -5 -5 -5 -4 -4 -3 -3 -3 -3 -3 -3 -3 -3 -3 -2 -2
-4 -4 -4 -4 -3 -3 -4 -4 -3 -3 -3 -3 -4 -4 -4 -4 -3 -3 -3 -3 -3 -4 -5 -5 -6 -6 -5 -5 -4 -4 -4 -3 -3 -3 -3 -3 -3 -3 -3 -3 -3 -3 -3
-4 -4 -4 -4 -3 -3 -3 -4 -3 -3 -3 -3 -3 -4 -3 -3 -3 -3 -3 -3 -3 -4 -4 -4 -5 -5 -5 -4 -4 -4 -3 -3 -3 -3 -3 -3 -3 -3 -3 -3 -3 -3 -3
-3 -3 -3 -3 -3 -3 -3 -3 -3 -3 -3 -3 -3 -3 -3 -3 -3 -3 -3 -3 -3 -4 -4 -4 -4 -4 -4 -4 -3 -3 -3 -4 -3 -3 -3 -3 -3 -3 -3 -3 -3 -3 -3
-2 -2 -2 -3 -3 -3 -3 -3 -3 -3 -3 -3 -2 -2 -2 -2 -2 -3 -3 -3 -3 -3 -3 -3 -3 -3 -3 -3 -3 -3 -4 -4 -4 -4 -3 -3 -3 -3 -3 -3 -3 -3 -3
-1 -1 -2 -2 -3 -3 -3 -3 -3 -2 -2 -3 -2 -2 -1 -1 -2 -2 -3 -3 -3 -3 -3 -3 -3 -2 -2 -2 -3 -3 -4 -4 -4 -4 -4 -3 -3 -3 -3 -3 -3 -2 -2
-1 -1 -1 -2 -2 -3 -3 -3 -3 -2 -2 -2 -2 -2 -2 -1 -1 -1 -2 -3 -3 -3 -3 -2 -2 -2 -2 -2 -2 -3 -3 -3 -4 -4 -4 -4 -3 -3 -2 -3 -2 -2 -2
-1 -1 -2 -2 -2 -3 -3 -3 -2 -2 -1 -1 -1 -1 -1 -1 -1 -1 -1 -2 -2 -3 -2 -2 -2 -2 -2 -2 -2 -3 -3 -3 -3 -3 -3 -4 -3 -3 -3 -3 -2 -2 -2
-1 -2 -2 -2 -2 -2 -3 -3 -2 -2 -1 -1 -0 -0 -1 -1 -1 -1 -1 -1 -1 -2 -2 -2 -2 -2 -2 -2 -2 -3 -3 -3 -2 -2 -3 -3 -3 -3 -3 -3 -3 -3 -3
-1 -1 -2 -2 -2 -2 -2 -2 -2 -2 -1 -1 -0 -0 -0 -0 -1 -1 -1 -1 -1 -1 -2 -2 -2 -2 -2 -2 -2 -3 -3 -2 -2 -2 -2 -3 -3 -3 -3 -3 -3 -3 -3
-1 -1 -1 -2 -2 -2 -2 -2 -2 -1 -1 -1 -1 -1 -0 -0 -1 -1 -1 -1 -1 -1 -2 -2 -2 -2 -2 -2 -3 -3 -3 -2 -2 -2 -2 -2 -3 -3 -3 -3 -3 -3 -4
-1 -1 -1 -2 -2 -2 -1 -1 -1 -1 -1 -1 -1 -1 -1 -0 -0 -0 -1 -1 -1 -1 -1 -1 -2 -2 -2 -2 -2 -3 -2 -2 -2 -2 -2 -2 -3 -3 -3 -3 -3 -3 -3
-1 -1 -1 -1 -1 -1 -1 -1 -1 -1 -1 -1 -1 -1 -1 -0 0 -0 -0 -0 -0 -0 -0 -1 -1 -1 -1 -2 -2 -2 -2 -1 -1 -1 -1 -2 -2 -2 -2 -2 -2 -2 -2
-1 -1 -1 -1 -1 -1 -1 -1 -1 -1 -0 -0 -0 -0 -0 0 0 0 0 -0 -0 -0 -0 -0 -1 -1 -1 -1 -1 -1 -1 -1 -1 -1 -1 -2 -2 -2 -1 -1 -1 -1 -1
-0 -0 -1 -1 -1 -1 -1 -0 -0 0 0 0 0 0 0 1 1 0 0 0 0 0 0 -0 -0 -0 -0 -0 0 0 -0 -0 -1 -1 -1 -1 -1 -0 -0 -1 -1 -1 -1
0 -0 -0 -0 -0 -0 -0 0 0 1 1 1 0 0 1 1 1 1 1 1 1 1 0 0 0 0 0 1 1 1 1 0 0 0 0 0 0 1 1 0 0 0 0
1 0 0 1 1 1 1 1 1 1 1 1 1 1 1 2 2 2 2 2 2 1 1 1 1 1 1 1 1 2 2 1 1 1 1 2 2 2 2 3 3 3 3
1 1 1 2 2 1 1 1 1 1 2 2 2 2 2 2 2 2 2 3 3 2 2 1 1 1 1 1 1 2 2 2 2 2 2 3 4 4 4 4 5 5 5
1 1 2 2 2 2 2 2 2 2 2 2 2 2 2 2 2 2 3 3 3 3 2 2 2 1 1 1 1 2 2 2 2 2 2 3 5 5 5 5 6 6 6
2 2 2 2 3 3 3 3 3 3 3 3 3 3 3 3 3 3 3 3 4 3 2 2 2 2 2 2 2 2 2 2 2 3 4 4 6 6 6 7 7 8 8
3 3 3 3 3 3 3 3 3 4 4 4 4 4 4 4 4 4 4 4 4 5 5 4 4 4 4 5 5 5 5 4 5 5 6 6 7 8 8 9 9 10 10
4 4 4 4 3 3 3 3 3 4 4 4 4 4 5 5 5 5 5 5 5 6 8 8 8 8 8 8 8 7 7 7 7 7 8 8 9 9 9 10 10 10 11
4 4 5 4 3 3 3 3 3 4 4 4 4 5 5 5 5 5 5 4 5 7 9 10 10 10 9 9 8 8 8 7 7 7 8 9 9 9 9 10 11 10 11